This is the latest recevied weather packets stored in our database for station/object SV9TNF-55. If no packets are shown the sender has not sent any weather packets the latest 10 day(s).
| Time | Temp. | Humidity | Pressure | Rain* | Wind** | Luminosity | Snow |
|---|---|---|---|---|---|---|---|
| 1787854487 | 22.78° C | 46% | 1015.1 hPa | 0 mm | 0.89 m/s, 292° | - | - |
| 1787853887 | 22.78° C | 48% | 1014.9 hPa | 0 mm | 0.89 m/s, 270° | - | - |
| 1787853287 | 22.78° C | 49% | 1014.6 hPa | 0 mm | 1.79 m/s, 270° | - | - |
| 1787852687 | 22.22° C | 52% | 1014.6 hPa | 0 mm | 1.34 m/s, 315° | - | - |
| 1787852087 | 22.78° C | 52% | 1014.6 hPa | 0 mm | 1.79 m/s, 292° | - | - |
| 1787851486 | 22.22° C | 52% | 1014.6 hPa | 0 mm | 0.89 m/s, 315° | - | - |
| 1787850886 | 22.78° C | 51% | 1014.5 hPa | 0 mm | 1.34 m/s, 292° | - | - |
| 1787850287 | 22.78° C | 50% | 1014.5 hPa | 0 mm | 0.89 m/s, 315° | - | - |
| 1787849686 | 22.78° C | 49% | 1014.4 hPa | 0 mm | 0.89 m/s, 315° | - | - |
| 1787849086 | 23.33° C | 49% | 1014.5 hPa | 0 mm | 1.79 m/s, 270° | - | - |
| 1787848485 | 23.33° C | 49% | 1014.5 hPa | 0 mm | 1.79 m/s, 270° | - | - |
| 1787847887 | 23.33° C | 49% | 1014.5 hPa | 0 mm | 1.34 m/s, 315° | - | - |
| 1787847286 | 22.78° C | 50% | 1014.5 hPa | 0 mm | 0.89 m/s, 270° | - | - |
| 1787846685 | 23.33° C | 50% | 1014.5 hPa | 0 mm | 1.34 m/s, 292° | - | - |
| 1787846087 | 23.33° C | 50% | 1014.5 hPa | 0 mm | 1.34 m/s, 270° | - | - |
| 1787845486 | 23.33° C | 49% | 1014.3 hPa | 0 mm | 1.34 m/s, 315° | - | - |
| 1787844885 | 23.89° C | 48% | 1014.2 hPa | 0 mm | 2.24 m/s, 315° | - | - |
| 1787844285 | 23.33° C | 51% | 1014.1 hPa | 0 mm | 1.34 m/s, 315° | - | - |
| 1787843686 | 23.89° C | 52% | 1014.2 hPa | 0 mm | 1.79 m/s, 315° | - | - |
| 1787843085 | 24.44° C | 51% | 1014.1 hPa | 0 mm | 1.79 m/s, 270° | - | - |
| 1787842485 | 24.44° C | 49% | 1014.1 hPa | 0 mm | 1.79 m/s, 315° | - | - |
| 1787841885 | 25° C | 51% | 1014 hPa | 0 mm | 1.79 m/s, 315° | - | - |
| 1787841284 | 24.44° C | 51% | 1013.9 hPa | 0 mm | 2.24 m/s, 292° | - | - |
| 1787840685 | 25° C | 50% | 1013.9 hPa | 0 mm | 2.24 m/s, 292° | - | - |
| 1787840084 | 25° C | 49% | 1013.9 hPa | 0 mm | 2.68 m/s, 292° | - | - |
* Rain latest hour (hover to see other rain measurements)
** Current wind speed in m/s (hover to see current wind gust speed)